Theta_e
318 320 317 318 317 316 316 314 317 321 319 318 320 322 323 323 318 315 314 311 310 314 317 320 320 318 316 316 315 312 310 312 313 313 314 313 312 311 312 312 311 311 311 306 304 306 307 308 309 309 310 311 314 318 320 322 323 323 324 324 325 326 327 328 328 329 330 331 331 330 330 331 332 331 331 330 330 330 330 331 331 331 330 329 329 330
316 318 318 320 317 315 315 315 317 317 317 319 320 319 318 318 318 313 312 313 311 313 318 321 321 318 317 315 315 313 312 314 316 316 317 316 314 312 312 313 312 310 308 306 306 306 306 307 308 308 308 308 310 313 315 318 319 321 322 323 323 324 325 327 327 328 329 330 331 331 331 330 330 331 332 331 330 330 330 331 331 331 330 329 329 329
316 319 319 317 313 312 314 316 320 320 322 324 320 317 317 318 317 312 311 313 311 313 319 322 321 318 317 315 315 315 315 316 315 315 316 316 315 313 312 312 312 311 311 311 308 305 305 306 307 307 308 307 308 310 311 313 315 318 319 321 321 322 323 324 326 327 327 328 329 330 331 332 332 332 332 333 333 333 332 331 332 332 331 329 329 328
319 320 318 312 310 312 314 316 319 320 322 323 320 320 319 317 316 313 313 313 311 311 316 320 318 316 315 315 316 313 310 312 313 313 312 311 313 312 311 312 311 312 313 312 310 305 304 305 305 306 307 307 308 308 309 310 312 314 316 317 319 320 321 322 324 325 326 327 328 329 330 332 333 334 334 334 334 334 333 332 332 332 332 330 329 329
319 314 309 309 311 316 315 314 316 317 317 317 323 330 327 320 317 316 314 314 314 311 312 315 314 320 324 323 323 315 309 311 312 312 312 311 310 309 310 311 310 310 311 310 311 307 303 302 304 305 305 306 307 307 308 309 310 311 312 314 316 318 320 321 322 323 325 326 327 329 330 331 332 333 334 334 333 334 333 331 332 333 331 331 331 330
316 308 306 310 312 316 317 315 318 320 316 315 322 330 331 325 322 319 317 317 319 315 310 310 312 327 334 330 327 322 318 318 313 313 317 317 312 310 313 313 309 309 308 307 308 307 303 301 302 304 304 304 305 307 308 308 309 310 311 312 315 317 319 321 322 323 324 325 326 328 329 330 331 331 332 332 331 332 332 330 331 332 332 332 332 331
313 307 310 315 314 316 316 315 317 319 318 317 317 322 326 327 325 325 320 315 318 313 308 309 314 321 325 322 323 324 322 321 316 316 321 320 315 314 315 314 312 310 309 308 307 306 304 302 301 302 304 305 305 306 307 308 309 309 310 312 314 316 318 320 322 323 324 325 326 327 328 328 329 329 329 330 329 330 330 330 330 330 330 330 330 330
311 310 313 316 316 316 315 316 316 316 320 319 314 317 325 325 326 328 323 320 320 314 312 318 318 314 317 315 316 318 319 320 319 319 323 320 315 314 313 312 310 308 307 307 310 311 306 300 301 303 304 306 306 306 307 307 308 309 310 312 314 316 318 320 322 323 324 325 325 325 326 327 327 327 327 328 328 329 329 329 329 328 328 329 330 331
313 317 316 315 317 316 316 318 316 315 321 320 311 314 321 323 327 330 329 328 319 310 317 323 314 311 320 322 317 314 314 318 320 318 318 317 316 317 315 313 312 310 306 303 307 312 306 299 301 304 306 306 306 307 307 308 309 310 311 313 315 317 318 320 321 323 324 325 325 325 325 325 326 326 326 326 327 327 328 328 328 327 327 327 328 329
313 315 314 315 316 317 317 315 314 318 320 315 308 312 317 319 325 326 327 327 317 314 323 323 312 311 319 325 322 313 312 318 318 315 316 316 317 319 319 318 318 318 315 311 307 303 299 300 303 305 308 308 308 308 308 309 311 311 313 314 316 318 319 320 321 323 324 324 325 324 324 324 324 324 325 325 325 325 326 326 326 326 325 325 324 324
312 310 311 314 314 314 314 311 312 317 316 310 312 317 317 321 326 326 327 322 315 321 325 317 313 311 312 324 325 313 313 318 316 317 319 319 321 321 322 322 320 321 323 322 317 305 298 303 306 307 310 310 309 311 310 311 312 313 315 315 317 318 319 320 321 322 323 324 324 325 324 324 324 324 324 324 324 324 325 325 325 325 324 324 324 323
314 313 313 314 313 313 315 314 310 309 311 315 322 322 317 322 325 326 328 320 316 327 323 312 311 311 310 321 323 317 316 314 312 315 318 318 320 321 323 323 318 318 322 325 325 316 307 307 309 309 310 311 311 312 312 313 314 314 316 317 318 319 320 321 321 322 323 323 324 324 325 325 325 325 324 324 325 324 325 325 325 325 324 324 323 323
318 317 314 313 311 313 319 320 313 311 316 319 320 320 320 322 320 323 329 321 319 324 314 309 312 311 311 315 315 317 318 313 310 312 315 316 318 322 324 322 318 318 325 330 327 324 319 312 307 309 310 311 312 313 313 314 315 316 317 317 318 319 320 321 321 322 322 323 324 324 324 325 325 325 325 325 325 325 325 325 325 324 324 324 323 322
318 319 315 314 314 312 316 319 316 317 318 315 315 319 323 322 316 318 321 315 316 318 310 308 312 313 314 312 312 315 312 312 312 312 315 316 316 318 318 316 319 324 329 331 329 329 324 310 305 308 311 311 312 313 314 315 315 316 317 317 318 319 319 320 321 322 322 322 323 323 323 324 324 324 324 325 325 325 324 324 324 324 323 323 323 322
318 319 316 316 316 313 314 317 320 320 316 315 316 315 319 325 324 321 322 320 321 318 311 308 312 319 318 310 311 314 312 312 314 312 312 312 312 311 310 313 321 327 329 332 331 327 314 304 305 310 310 311 313 313 314 315 316 316 317 317 318 318 319 319 320 320 321 321 321 322 322 323 323 323 323 323 323 323 323 323 323 323 322 322 322 322
316 315 315 313 312 313 316 316 318 318 316 316 314 311 316 323 324 318 314 317 318 315 313 312 315 321 318 310 311 311 310 313 314 313 312 315 315 313 316 322 326 329 331 333 334 330 314 304 306 309 309 311 312 313 314 314 315 316 316 317 317 317 318 318 318 318 318 319 319 320 320 320 321 321 321 322 321 321 321 321 321 321 321 320 320 320
315 314 313 313 312 313 315 314 315 317 317 316 313 315 318 316 319 316 307 307 310 311 314 314 316 319 313 312 316 314 313 313 313 315 317 321 322 321 324 328 328 331 333 332 334 332 315 305 307 309 310 311 311 312 314 313 314 315 315 316 316 316 316 317 317 317 317 318 318 318 318 318 319 319 319 319 318 318 318 319 319 318 318 318 318 317
318 316 313 315 316 311 309 312 316 315 314 317 319 319 313 309 316 318 312 315 314 313 317 315 314 317 313 313 320 319 316 315 314 316 318 320 321 321 325 326 327 329 330 329 332 326 309 302 308 310 309 310 311 312 312 313 314 314 314 314 314 315 315 315 315 315 316 316 316 316 316 316 317 316 316 316 316 316 316 316 316 316 316 316 315 315
321 318 312 313 317 313 310 314 317 312 310 316 319 315 314 316 318 314 313 320 317 313 322 321 313 311 311 316 321 318 314 317 319 317 315 317 319 322 325 329 331 331 331 331 334 333 313 302 307 311 310 310 310 311 312 312 313 313 313 314 313 314 314 313 314 314 314 314 314 314 314 314 315 314 314 314 314 314 314 314 314 314 314 314 314 314
318 320 313 311 314 314 314 315 318 316 311 312 311 309 315 324 323 316 313 318 316 311 318 324 319 315 315 317 320 315 313 318 321 320 319 318 320 322 325 332 334 331 331 328 329 334 316 302 305 310 310 311 311 311 312 312 313 313 313 313 313 313 313 313 313 313 313 313 313 313 313 313 313 313 313 313 313 313 313 313 313 313 313 312 312 312
314 315 314 313 312 315 319 318 319 319 314 312 312 311 315 317 316 316 313 314 318 317 318 319 319 324 324 317 316 316 315 316 319 323 322 316 316 321 323 328 329 325 326 323 323 328 314 303 307 311 310 312 312 312 312 313 313 313 313 313 313 313 313 312 313 313 313 313 313 313 313 312 312 312 312 312 312 312 312 312 312 312 312 311 311 311
314 311 315 317 315 318 320 316 314 317 315 314 314 313 315 315 315 317 314 312 313 315 318 317 314 322 327 318 315 318 317 313 313 317 320 316 313 316 317 318 319 318 320 320 324 326 312 305 309 310 310 311 311 312 313 313 314 313 313 313 313 313 313 312 313 313 312 312 312 312 312 312 312 311 311 311 311 311 311 311 311 310 310 310 310 310
316 317 321 320 318 318 315 309 307 312 315 315 314 314 315 314 316 319 318 315 311 307 311 315 314 318 320 312 313 317 313 309 309 312 319 318 311 311 314 315 314 314 316 319 324 318 306 305 309 309 308 309 310 312 313 313 314 313 313 313 313 313 313 313 313 313 313 312 312 312 311 311 311 311 311 310 310 310 310 310 310 309 310 310 310 309
314 318 319 317 317 317 313 309 309 311 313 315 316 316 315 314 316 321 322 319 315 311 311 314 314 316 321 317 315 316 313 313 314 314 318 323 322 321 321 320 319 319 317 319 320 310 302 305 307 306 306 309 311 312 313 313 313 314 314 314 314 314 313 313 313 312 312 312 311 312 311 311 311 310 310 310 309 309 309 309 309 309 309 309 309 309
312 316 317 315 317 318 315 314 315 315 314 317 319 315 314 317 315 315 316 314 314 316 316 318 316 314 321 322 317 317 318 321 323 319 318 324 327 324 321 319 321 324 321 320 324 320 314 309 304 303 307 310 311 312 312 313 313 313 313 313 313 313 312 312 312 311 311 311 311 311 310 310 310 309 309 309 309 309 308 308 308 308 309 308 308 308
313 317 315 314 315 315 316 316 317 318 316 316 318 314 313 316 314 313 316 315 315 317 315 317 316 311 313 316 312 314 320 320 319 317 315 318 320 320 320 320 321 324 325 326 328 328 322 310 302 302 306 309 310 311 311 311 312 312 312 312 312 312 311 311 311 311 310 311 311 310 310 309 309 309 309 308 308 308 308 308 308 308 308 307 307 307
319 318 312 312 314 312 313 315 317 320 319 317 318 316 313 314 313 317 321 318 315 315 312 314 315 311 312 315 312 315 322 324 323 324 323 322 322 323 323 323 323 325 328 328 328 326 322 315 305 302 305 308 308 309 309 309 310 310 310 311 310 310 310 310 310 310 311 311 310 309 309 308 308 308 307 307 307 307 306 306 307 307 307 307 307 307
321 316 311 313 314 311 313 319 319 319 318 317 317 316 314 313 314 317 318 315 315 315 313 312 312 311 312 314 316 320 325 326 328 333 332 326 326 325 321 321 323 325 327 328 328 325 325 324 311 301 303 306 306 306 307 307 307 307 307 308 308 309 309 309 309 309 309 309 308 308 307 307 307 306 306 306 305 305 306 306 306 306 306 306 306 306
317 314 313 314 312 311 315 319 319 318 317 317 317 316 314 313 314 315 315 314 315 315 313 313 314 312 311 312 315 319 324 327 326 326 322 320 324 322 317 319 323 325 328 327 325 323 323 323 311 300 302 305 304 305 305 304 305 305 305 305 305 306 307 307 308 307 307 307 306 306 306 305 305 305 305 305 305 305 306 306 307 307 306 306 306 305
314 315 316 312 310 312 313 315 317 317 317 316 315 315 314 313 313 313 314 314 313 314 313 314 317 315 311 312 313 315 321 325 321 318 317 319 321 319 318 321 323 326 328 320 316 318 318 313 302 298 302 303 302 303 303 302 303 303 303 304 304 305 306 306 306 306 305 305 304 304 305 304 305 305 304 305 305 306 307 307 307 307 306 306 306 305
311 318 317 311 310 312 312 313 315 315 316 316 315 314 312 312 313 313 313 314 313 314 313 313 316 315 310 312 315 315 317 316 312 313 316 320 322 321 321 322 322 326 323 312 309 315 316 310 300 297 301 301 300 301 301 301 303 303 303 304 304 305 305 305 305 305 304 304 304 304 304 304 305 305 305 306 307 307 307 307 307 306 306 306 305 305
311 316 315 312 312 314 312 312 313 312 312 313 314 314 313 313 313 312 313 313 313 314 314 314 315 313 310 313 315 314 313 313 312 313 314 316 318 318 319 321 322 322 316 310 311 316 317 311 302 297 298 299 299 300 300 301 302 302 303 303 303 304 304 304 304 304 303 304 304 304 305 305 306 306 307 307 307 307 307 307 307 306 306 306 305 305
315 316 316 314 314 315 311 310 312 312 311 312 312 313 313 312 312 312 312 313 314 314 314 314 313 311 312 316 315 313 313 314 313 313 311 312 312 312 313 314 313 313 313 312 313 312 309 305 299 297 297 298 298 298 299 299 300 301 301 302 302 303 303 303 303 303 303 303 303 304 304 305 305 306 306 306 306 306 306 306 306 306 305 305 305 305
316 317 317 314 316 318 310 308 312 313 312 312 312 311 311 311 312 313 313 313 313 312 313 313 313 311 312 315 315 314 314 315 313 311 310 311 312 311 310 309 310 312 312 309 307 303 299 297 296 296 297 296 296 297 297 298 298 299 299 300 301 301 301 301 301 301 301 300 300 301 301 302 303 303 303 303 303 304 304 304 305 305 304 304 304 304
315 315 317 315 317 317 310 310 315 315 314 315 316 314 311 310 311 313 314 313 312 312 312 312 313 312 312 312 313 312 313 314 316 314 312 311 310 311 312 312 310 309 306 303 301 298 294 294 295 296 295 295 296 296 296 297 298 298 298 298 299 299 298 299 299 299 299 298 298 298 298 298 299 299 299 300 301 301 302 302 302 303 302 302 302 302
315 315 317 317 318 316 311 313 316 317 316 318 319 316 310 308 310 311 312 312 311 311 312 312 312 311 312 311 311 314 316 315 314 311 305 301 301 305 309 307 303 300 299 297 296 294 293 294 295 294 294 294 294 294 295 296 296 296 296 297 297 297 297 297 297 297 298 297 297 297 297 297 297 298 298 298 298 298 299 299 299 300 299 299 300 300
315 316 317 317 317 316 314 314 315 317 317 317 318 317 312 310 311 310 311 312 311 309 310 311 311 310 311 310 311 315 316 313 312 309 301 296 296 297 298 297 295 295 294 293 293 293 293 294 294 293 293 293 293 294 294 294 294 295 296 296 295 296 296 296 296 296 296 296 296 296 296 296 296 297 297 297 296 296 296 296 297 297 296 296 297 297
314 316 317 316 317 317 317 316 316 317 317 316 317 318 315 313 312 310 312 314 314 312 309 309 310 310 310 309 311 315 314 310 313 311 300 295 295 294 293 292 291 292 292 292 293 293 293 293 292 292 292 292 293 293 293 294 295 296 295 294 294 294 295 294 293 293 294 295 295 295 295 295 295 295 296 296 295 295 295 296 296 296 295 294 294 295
314 315 316 316 317 318 317 316 317 316 316 318 320 316 315 316 314 311 313 316 318 317 312 309 309 309 310 310 311 313 312 311 314 309 298 295 295 293 293 292 291 291 291 291 292 292 292 292 291 291 291 292 292 291 292 294 295 295 294 292 291 292 292 291 290 291 292 293 294 294 294 294 294 294 294 294 294 294 295 295 296 296 295 295 294 294
314 314 315 316 317 317 316 317 317 316 316 319 318 313 312 313 312 314 319 320 319 316 311 310 310 310 312 314 312 313 313 313 314 307 296 294 293 291 292 292 291 291 290 290 290 291 291 291 290 289 290 289 289 290 291 292 293 293 291 290 289 289 288 287 288 289 291 292 293 293 293 293 293 293 293 293 293 293 294 294 295 295 295 295 294 294
314 314 314 316 317 316 317 317 317 318 320 320 316 312 312 311 312 318 320 317 316 312 305 307 313 313 314 316 316 313 309 304 303 299 294 293 293 291 291 291 290 290 289 288 289 289 289 289 289 289 288 287 288 289 290 291 291 290 289 288 288 287 286 286 287 288 290 291 291 292 292 292 292 292 292 292 292 292 293 293 293 293 293 294 294 294
315 314 314 315 316 316 317 317 317 319 320 319 315 312 311 313 318 319 311 304 306 308 303 304 310 310 308 311 311 305 299 294 294 295 294 293 293 291 290 289 289 289 288 288 287 288 288 288 288 288 287 286 286 287 288 289 289 288 287 287 286 285 284 285 286 287 289 290 291 291 292 291 292 292 292 292 292 292 293 292 292 292 292 292 293 292
314 315 314 314 315 316 316 316 318 319 316 313 312 310 311 315 318 313 305 299 299 302 301 302 304 302 301 302 299 296 295 294 294 294 293 292 292 291 289 289 288 288 287 287 286 286 287 287 287 287 286 285 285 285 286 286 286 285 285 285 284 283 283 284 285 287 288 289 290 291 291 291 291 291 291 291 291 291 292 292 292 292 291 291 291 290
314 314 314 314 314 314 316 316 316 317 314 311 313 314 315 314 309 308 310 306 299 297 299 300 299 297 297 298 296 294 295 295 294 294 293 292 292 290 289 288 288 287 286 286 285 285 285 286 286 285 284 283 283 283 283 284 283 283 283 283 282 282 282 283 284 286 287 288 289 289 290 290 290 290 290 290 290 290 290 291 290 290 290 290 289 289
313 313 314 316 314 312 314 314 311 309 307 305 308 311 311 306 302 303 309 307 300 299 300 299 298 296 296 296 296 296 296 295 295 294 294 293 292 290 289 288 286 286 285 284 284 284 284 284 284 283 282 282 281 281 281 282 282 281 281 281 281 281 282 283 284 284 285 286 287 288 288 289 289 289 289 288 288 288 288 288 288 288 289 288 287 287
312 310 311 315 314 310 310 309 305 304 305 303 302 302 301 301 301 302 304 304 301 300 298 297 297 297 296 296 298 298 296 295 295 293 293 292 291 289 288 286 285 284 283 283 282 282 282 281 281 280 280 280 280 280 280 280 280 280 280 280 280 280 280 281 282 282 283 284 284 284 285 286 286 286 286 286 285 285 285 285 285 285 286 286 286 286
310 308 309 312 313 313 312 308 304 303 303 301 300 300 299 299 299 299 302 303 300 298 298 297 297 296 295 297 299 299 296 294 293 292 291 290 290 288 287 285 283 282 281 281 280 279 279 279 278 278 278 278 278 278 278 279 279 278 278 278 277 277 278 278 278 278 278 278 279 279 280 280 281 281 282 282 283 283 283 284 284 284 284 285 285 285
310 308 310 312 312 312 310 304 300 300 300 299 299 300 300 299 298 297 298 299 297 296 296 294 294 295 296 296 296 296 294 291 291 291 289 288 288 286 284 282 281 280 280 279 278 277 277 276 276 276 276 276 276 277 277 278 278 277 277 276 275 274 275 274 274 274 274 274 275 275 276 277 277 278 279 280 280 281 282 282 282 283 284 284 284 284
307 307 310 312 311 309 306 302 299 303 305 303 300 299 297 296 296 295 294 294 294 293 293 290 289 290 292 292 292 292 291 289 287 287 286 286 285 282 280 279 278 278 278 277 276 275 275 274 274 274 274 274 275 276 277 278 277 276 275 274 273 272 272 271 271 271 272 273 273 273 274 275 275 276 277 278 279 279 280 281 281 281 282 284 284 284
305 308 309 309 310 311 309 305 303 307 311 307 303 300 297 294 293 292 292 292 291 291 290 290 287 285 285 286 287 289 289 285 283 283 283 282 280 278 277 277 276 276 276 275 274 273 273 273 273 273 273 273 274 275 276 277 276 274 273 272 271 270 270 270 270 270 271 272 272 272 272 273 274 275 275 276 277 278 279 281 281 281 281 282 284 284
307 309 308 309 310 311 309 306 304 307 311 308 304 301 296 292 291 292 291 291 290 289 289 289 289 286 284 282 281 284 284 281 279 280 281 279 276 275 275 274 274 274 273 273 272 271 271 271 271 271 271 272 274 275 276 275 274 272 271 271 270 270 270 270 270 270 271 271 272 272 272 272 272 273 273 274 275 276 277 279 281 281 281 281 282 283
Wind_Speed
3 4 3 5 6 7 7 6 6 5 6 8 6 4 4 4 2 4 3 5 1 2 4 3 4 8 9 11 12 9 3 4 8 8 9 9 8 8 8 8 8 9 11 12 14 16 17 19 21 23 25 27 29 31 32 32 33 35 35 35 36 36 35 34 33 32 32 31 32 32 31 31 31 32 31 29 28 28 29 30 31 30 28 29 31 33
3 4 6 6 7 7 6 6 8 7 7 6 6 5 2 3 3 2 2 4 3 1 3 3 4 10 10 10 11 8 6 7 9 9 10 11 10 8 8 10 9 8 8 8 12 17 17 17 18 19 21 23 26 29 31 33 34 35 35 35 36 35 35 35 36 35 34 34 33 32 32 32 31 31 32 33 34 33 34 34 33 31 29 30 32 32
2 3 6 5 6 7 7 6 8 8 7 5 4 5 2 3 2 3 2 4 4 1 3 4 5 10 11 9 11 10 9 9 8 9 9 9 10 9 8 9 8 8 8 8 11 15 18 19 19 20 21 24 25 26 28 30 32 33 34 35 35 35 35 36 36 36 35 36 34 31 29 29 29 30 31 33 33 32 33 34 34 31 28 28 29 30
4 4 5 5 7 9 6 4 8 8 5 4 4 5 2 2 2 2 2 3 3 1 1 2 3 8 8 7 9 9 6 7 7 8 9 8 10 11 9 7 7 8 10 10 10 11 14 18 19 21 23 24 25 26 27 29 30 32 33 34 34 35 35 35 36 36 35 33 31 30 29 27 26 26 27 29 29 28 28 29 32 33 32 31 29 30
4 3 2 6 6 8 7 3 6 6 2 0 3 5 3 3 4 2 1 2 3 2 2 2 4 6 5 5 7 5 4 5 5 6 8 8 9 9 9 9 9 10 11 11 11 9 10 14 17 20 23 24 25 28 29 29 29 30 31 32 33 34 34 34 34 34 33 30 29 28 28 26 24 23 23 24 25 27 28 30 32 34 35 32 30 33
3 3 3 8 4 6 8 4 5 7 3 2 4 6 6 7 6 2 1 3 3 3 3 4 3 5 4 4 7 5 6 6 4 5 9 8 6 6 8 10 8 8 9 10 12 10 9 12 14 16 18 21 24 27 28 27 27 27 28 29 30 31 32 33 32 32 31 30 29 29 27 26 25 24 25 27 28 28 31 32 32 32 30 29 30 32
1 2 3 7 6 6 6 3 5 6 6 3 4 5 7 7 8 6 4 4 2 2 2 3 2 4 6 5 7 5 7 10 7 6 9 8 5 5 6 8 7 7 8 8 9 9 10 12 12 14 16 18 21 23 24 25 25 25 26 26 27 29 30 30 30 30 31 31 30 30 30 29 28 27 28 31 31 31 32 32 32 31 30 29 30 29
2 3 4 6 6 6 5 4 5 7 7 3 3 6 9 8 8 7 5 4 2 2 3 4 3 2 5 6 6 5 6 10 9 8 9 6 5 6 6 7 7 8 8 7 8 8 8 10 11 13 14 14 15 17 18 20 22 22 23 23 24 25 27 28 29 29 30 31 31 31 31 30 30 30 29 29 29 30 30 31 31 32 32 32 31 31
2 4 5 6 5 4 5 4 5 8 6 3 3 6 7 7 7 5 6 4 1 1 3 4 2 1 6 6 5 5 4 7 9 11 10 7 7 7 6 7 7 7 7 7 8 8 8 9 9 10 9 8 10 11 13 15 16 18 20 20 21 23 24 26 27 27 28 30 30 30 30 30 30 30 28 26 26 27 29 30 31 31 32 32 32 32
1 4 6 6 5 5 3 2 1 3 3 3 5 7 6 6 6 5 5 3 2 1 4 4 2 1 5 7 4 2 2 6 9 10 8 7 7 7 6 7 7 6 6 5 7 8 11 11 8 5 4 5 7 8 10 11 12 15 17 18 19 20 22 23 24 25 26 27 29 29 30 30 29 28 27 26 25 25 26 28 30 30 31 31 31 32
2 1 1 2 3 5 4 4 3 2 4 7 6 7 7 6 5 4 3 4 3 2 5 5 2 0 3 6 4 3 4 6 6 6 6 6 7 6 6 6 6 6 6 5 4 6 9 8 4 1 1 4 6 8 10 10 11 13 16 17 18 18 19 20 22 23 24 25 27 28 29 29 28 28 27 27 26 26 26 27 28 29 29 30 30 30
3 2 0 0 1 4 6 5 5 3 4 6 4 5 5 4 4 4 4 3 2 4 6 3 2 1 3 6 4 4 6 6 5 4 7 7 8 7 6 6 6 5 5 5 4 4 4 3 2 2 3 6 8 9 10 11 11 13 14 15 16 17 18 18 20 21 22 23 25 26 27 27 27 27 27 27 28 28 28 28 28 28 28 29 29 29
2 1 1 1 0 3 6 5 5 4 4 5 4 6 5 2 3 1 3 1 3 5 4 2 1 2 6 8 8 10 11 8 7 7 7 7 8 8 7 7 7 6 5 5 4 4 4 3 2 2 4 6 9 10 10 11 12 12 14 15 15 16 16 17 18 19 20 22 23 24 25 25 25 26 27 27 28 28 28 28 28 28 28 29 29 29
1 3 1 3 0 2 5 5 3 1 0 4 5 6 5 3 3 2 3 2 3 4 3 3 2 3 5 5 9 15 13 6 6 8 7 6 8 8 7 8 8 8 5 4 4 3 3 3 1 2 4 6 9 10 10 11 12 13 14 14 14 14 15 15 16 17 18 19 20 21 22 23 24 25 26 26 27 27 27 27 28 28 29 29 29 29
4 4 3 3 2 2 4 4 5 5 3 2 3 4 5 5 4 4 4 3 4 2 3 3 2 3 2 2 5 10 9 6 4 6 5 6 8 6 7 8 7 8 5 3 3 3 3 3 0 2 4 6 8 10 10 11 12 13 13 13 13 13 13 14 14 15 16 16 17 18 20 21 22 23 24 25 25 25 26 27 27 28 28 28 29 29
4 4 3 2 2 3 4 3 3 6 3 1 1 4 3 4 5 3 3 5 3 0 1 2 3 4 4 6 8 5 6 8 6 5 4 6 7 4 6 7 6 6 5 3 3 3 3 2 2 3 4 6 8 10 11 11 11 12 12 12 12 11 11 12 13 13 13 14 15 17 18 19 20 21 22 23 23 23 24 26 26 27 27 28 28 28
3 2 3 3 2 1 2 3 1 2 3 2 2 3 4 3 8 6 2 0 3 1 3 1 4 5 4 7 9 4 5 8 7 5 5 6 5 4 5 5 5 6 5 4 4 3 4 3 3 4 5 7 9 10 10 10 10 10 10 10 10 10 10 11 11 12 12 13 15 16 17 18 19 20 20 20 20 21 22 24 25 25 26 27 27 27
5 2 3 2 2 1 1 2 4 3 3 5 3 5 3 2 5 4 2 3 3 2 4 1 4 5 3 4 7 7 6 7 6 5 4 4 4 4 5 5 6 7 5 5 4 4 5 5 3 3 6 7 9 9 9 10 10 9 9 8 8 8 8 8 8 9 11 12 13 14 15 16 16 17 18 18 18 19 21 22 23 24 25 26 26 26
5 3 3 1 2 2 2 3 3 3 3 3 4 3 4 3 2 2 2 1 1 2 4 4 4 4 4 5 5 4 5 5 5 2 1 4 5 4 5 5 6 6 5 5 4 3 4 6 5 3 6 8 9 10 10 10 9 9 8 8 7 7 6 6 6 7 8 10 10 11 12 12 14 15 16 17 18 19 20 21 21 22 23 23 24 25
4 4 1 1 2 1 2 2 4 1 3 3 2 2 3 3 4 2 2 4 3 3 3 4 4 3 6 6 5 9 9 6 6 4 1 5 6 4 4 4 5 5 5 5 5 4 3 5 5 4 7 8 10 10 10 10 8 8 8 7 7 6 6 6 6 6 7 7 8 9 10 10 12 13 15 16 18 19 20 19 19 20 20 21 22 24
2 3 3 1 2 1 2 3 7 7 4 2 3 3 2 1 2 1 1 2 4 4 3 2 4 5 6 4 7 10 9 7 7 5 3 5 5 5 4 5 5 5 5 5 4 4 5 5 2 5 8 9 10 10 10 9 8 7 7 7 7 7 6 5 5 6 6 7 8 10 10 10 12 13 14 16 18 19 19 18 18 18 18 19 21 21
2 3 5 3 0 3 4 3 4 5 6 6 5 6 6 4 4 3 2 1 2 3 4 3 3 8 6 4 6 7 6 6 6 5 4 5 6 6 6 6 6 6 5 5 4 4 4 3 2 6 8 9 10 10 9 9 8 6 6 5 4 4 3 2 3 5 7 8 10 11 10 10 11 12 13 15 17 18 17 17 17 16 17 18 19 20
3 4 5 2 3 4 3 2 1 2 2 4 3 4 5 4 5 6 5 4 2 1 2 4 1 8 6 3 5 6 5 5 5 5 5 5 5 6 6 6 5 5 6 5 4 4 4 2 1 4 6 8 10 10 9 8 7 5 4 3 1 1 2 3 5 7 9 10 10 10 10 10 11 12 14 15 17 17 16 16 15 15 15 16 16 18
3 4 4 0 2 3 4 3 3 2 1 2 3 3 5 3 3 5 5 4 4 3 3 4 2 8 5 1 3 5 5 6 5 5 5 6 4 4 6 5 2 2 4 4 4 4 5 4 2 2 4 6 9 9 8 7 6 5 3 1 1 3 5 6 8 9 10 10 9 9 10 11 11 12 12 13 14 14 13 13 12 12 13 14 15 16
4 3 5 3 2 3 3 2 3 3 2 4 3 3 4 4 6 5 2 4 2 4 7 5 4 6 4 4 2 3 4 6 6 5 5 5 5 4 4 2 1 3 4 5 5 5 5 6 5 4 5 8 9 8 7 6 5 3 1 1 3 5 6 8 9 9 8 8 7 8 8 8 8 8 9 10 11 11 10 10 10 10 11 13 14 15
5 4 5 7 6 5 6 6 4 3 3 2 2 4 6 7 9 5 2 4 3 5 7 6 7 4 2 4 2 2 5 5 6 5 4 5 5 4 3 0 2 3 4 4 5 5 5 5 7 7 8 9 8 7 6 4 3 1 1 3 4 5 6 7 7 6 5 5 5 4 4 4 4 5 6 8 8 8 8 8 8 9 9 11 13 14
3 3 6 9 11 11 11 8 4 7 6 5 5 8 9 9 9 7 4 4 6 3 4 8 11 8 4 2 3 4 4 5 5 4 4 4 5 5 3 2 3 3 3 3 4 5 5 5 7 8 7 6 6 5 4 2 1 1 2 3 4 4 4 4 4 3 3 2 1 1 1 2 2 3 5 6 6 7 7 7 8 8 9 10 12 13
4 4 8 10 13 12 8 6 4 8 9 10 10 10 10 10 10 9 8 10 6 6 6 13 12 13 10 6 6 7 5 5 6 5 5 4 5 4 1 3 5 5 5 4 3 4 5 4 5 7 7 5 5 5 4 2 2 1 2 2 2 2 3 3 2 3 3 3 2 2 2 2 2 3 4 6 7 8 9 9 10 11 11 12 13 14
5 7 8 9 13 11 4 5 6 7 7 9 12 13 13 13 13 13 15 15 9 7 15 13 9 14 13 8 9 9 6 6 6 5 4 4 5 3 2 3 5 6 6 4 3 4 4 4 5 5 6 5 5 5 5 5 4 5 5 5 4 3 3 3 4 5 5 5 4 4 4 4 5 6 7 8 9 10 12 13 14 14 14 15 15 16
4 5 5 8 11 11 4 5 6 7 6 5 9 13 15 16 17 18 18 19 14 14 19 9 6 13 13 8 10 9 6 6 4 2 2 3 5 3 2 5 6 7 7 3 3 5 4 4 4 3 6 7 7 7 7 7 7 7 7 6 6 5 5 6 6 7 7 6 6 6 6 7 7 8 9 10 11 12 13 14 15 15 16 16 17 17
3 3 3 6 5 8 5 6 5 5 6 5 6 9 12 14 16 18 18 17 13 13 16 9 6 15 8 8 9 9 6 5 3 2 4 5 6 6 6 7 7 9 7 2 3 5 3 2 2 6 9 10 10 9 9 9 8 8 8 7 8 7 7 8 8 8 7 7 8 7 7 7 8 9 10 11 12 13 14 15 15 16 16 16 17 18
4 2 2 5 4 6 4 7 6 4 5 2 3 7 13 14 14 15 13 10 9 11 13 9 9 14 6 8 8 7 6 6 7 7 8 8 8 8 8 8 8 8 5 1 1 3 2 3 5 8 10 10 10 10 10 10 9 9 9 8 9 9 8 8 9 9 9 8 8 7 8 9 9 10 12 13 14 15 15 16 16 16 17 17 18 18
5 5 2 5 6 4 2 6 8 7 5 3 7 12 18 16 13 9 6 7 9 11 10 9 12 15 6 7 7 5 7 8 10 9 9 9 9 8 8 8 7 5 3 2 1 3 4 5 7 9 10 11 11 11 11 11 10 10 9 10 10 10 10 10 10 10 9 10 10 10 12 12 13 14 15 16 16 16 17 17 17 17 18 18 19 20
4 6 4 4 5 3 1 6 8 5 5 8 8 12 17 16 13 10 9 14 14 12 10 10 12 13 5 7 8 8 7 8 8 6 5 5 5 8 8 4 2 1 3 3 3 4 6 7 9 10 10 11 11 11 11 11 11 10 11 11 11 12 12 12 12 13 13 14 15 16 17 17 17 18 18 18 19 19 19 19 19 19 19 20 20 21
6 6 3 2 3 2 2 6 5 6 10 7 2 6 13 15 16 16 16 17 15 13 13 13 13 14 11 9 9 8 7 6 2 2 4 4 2 5 4 2 4 5 6 5 4 5 7 9 10 10 11 12 12 13 13 13 12 12 13 14 14 14 15 14 15 17 18 18 19 20 20 21 21 21 21 21 21 21 21 21 21 22 21 21 21 22
7 6 3 2 3 3 3 4 6 6 5 4 3 2 6 8 9 11 12 13 11 11 13 15 17 18 16 13 7 5 5 3 2 4 6 6 5 3 3 5 6 6 6 6 6 7 9 11 11 11 12 14 15 15 15 14 14 14 15 16 16 17 18 18 19 21 21 22 22 22 22 23 23 23 23 23 23 23 23 23 23 23 22 23 23 24
7 6 4 4 3 3 4 4 4 4 4 4 5 3 5 7 10 10 8 10 11 13 13 15 18 18 16 13 6 5 5 3 1 2 5 6 5 6 7 7 7 8 8 9 10 11 11 13 13 13 13 15 17 18 17 15 15 16 17 18 19 20 21 22 23 24 24 24 24 24 24 24 24 24 25 25 25 25 25 24 25 24 23 24 25 26
4 4 4 6 4 4 4 3 1 2 5 8 7 4 5 8 11 12 8 7 8 11 14 15 16 16 14 11 6 6 5 2 4 3 3 5 4 6 8 8 10 11 11 12 13 14 14 14 14 15 15 17 19 19 18 17 17 18 20 21 21 22 23 25 26 25 25 25 25 25 25 25 25 25 26 26 26 26 26 27 27 26 25 25 27 28
2 1 2 4 4 3 5 5 4 6 7 8 7 4 4 7 9 10 5 7 6 5 8 12 14 14 12 10 5 7 6 4 7 4 0 2 3 5 6 7 10 12 13 13 14 14 13 13 14 16 19 20 21 20 19 18 19 20 21 21 21 23 25 25 25 25 25 25 25 26 26 26 26 26 27 27 28 28 28 28 28 28 28 27 28 29
5 2 2 4 5 5 6 5 4 4 4 5 5 4 4 6 11 10 5 8 5 1 2 7 11 11 7 5 4 7 6 6 5 4 4 4 4 6 6 7 9 11 13 14 14 13 13 13 15 18 21 21 19 19 20 19 20 21 21 19 20 23 24 23 23 24 25 26 26 26 27 27 28 28 28 29 29 30 30 29 30 30 30 31 31 31
5 3 4 6 8 9 9 7 4 4 5 5 5 4 5 8 9 8 8 6 3 2 2 3 6 5 3 5 5 4 4 3 4 6 6 5 5 6 8 9 10 11 12 14 14 14 14 15 17 18 18 18 18 19 20 19 20 21 19 18 20 22 21 21 22 24 25 26 27 28 28 28 29 30 30 30 31 32 32 31 31 32 32 33 33 33
6 4 4 7 8 8 8 7 4 4 5 6 6 4 5 6 5 7 5 2 3 4 1 2 5 4 4 5 5 5 5 4 6 7 5 5 5 5 6 8 9 10 11 13 15 16 14 15 16 17 16 17 18 19 18 18 18 18 17 18 20 20 20 20 22 24 26 27 28 29 30 30 31 31 32 33 33 34 36 35 33 34 33 33 34 34
7 6 4 5 6 4 4 6 4 4 5 8 8 3 3 4 5 5 4 2 2 4 4 4 4 4 6 7 7 8 8 6 6 7 6 5 5 5 6 7 9 9 10 13 15 16 15 15 15 15 15 16 17 18 18 18 18 18 18 19 20 20 20 21 24 26 27 28 29 30 31 31 32 32 33 34 33 34 36 37 36 36 35 33 33 34
5 5 4 5 4 4 6 7 4 2 4 6 6 4 4 3 4 6 6 4 3 4 4 4 3 4 7 11 10 9 8 7 7 6 6 5 5 5 6 7 8 9 11 12 13 14 14 14 13 13 14 15 16 18 18 18 19 19 19 19 21 22 23 24 27 28 29 30 30 31 31 31 32 32 32 33 33 34 36 37 36 37 36 33 31 31
4 4 4 4 3 3 4 4 2 0 1 1 0 2 3 2 3 5 7 6 4 4 4 5 6 5 8 11 11 8 7 7 7 6 6 5 5 5 6 7 8 9 9 10 11 12 12 11 12 14 16 16 17 18 19 19 20 21 21 21 22 23 25 27 29 29 30 30 30 31 31 32 32 32 32 32 32 32 33 34 35 35 35 33 30 29
2 1 2 2 2 2 1 2 2 0 1 1 2 1 1 1 2 5 7 7 6 6 5 7 9 9 9 11 10 8 7 8 7 6 5 5 5 5 7 8 8 8 8 9 11 12 11 11 12 16 18 18 17 18 18 18 19 19 19 20 21 23 25 28 29 30 30 30 30 30 31 32 33 33 33 32 31 30 31 31 31 33 34 33 29 27
2 2 2 1 3 3 2 2 2 1 1 2 0 1 0 1 0 2 5 6 6 6 6 7 9 10 9 9 10 10 9 9 9 7 5 5 5 5 5 6 6 7 8 9 11 12 13 13 14 15 16 16 16 17 17 17 17 17 17 17 20 23 26 28 29 31 31 30 29 29 28 29 30 31 32 31 30 30 31 30 29 30 32 32 29 27
2 3 3 2 4 4 2 1 1 1 1 2 2 2 2 2 1 2 3 4 6 7 5 4 5 6 5 5 7 10 9 6 5 6 6 5 4 4 5 6 6 7 8 9 11 13 13 13 12 12 12 13 15 16 16 15 15 15 17 19 21 24 27 29 29 30 29 28 27 27 27 28 29 30 31 31 30 29 30 31 30 30 32 33 30 28
2 3 3 3 3 0 1 2 3 2 3 3 5 4 3 3 3 4 4 5 7 7 6 5 5 4 4 5 5 8 9 5 3 4 5 4 4 5 5 6 7 7 8 9 11 12 11 11 11 10 11 12 14 15 15 13 13 17 19 20 22 23 26 28 28 27 26 26 27 27 28 30 29 28 28 30 31 31 31 30 29 29 34 39 35 28
3 4 3 4 3 3 4 6 7 4 1 5 8 8 6 5 6 6 6 6 6 6 6 6 5 5 6 6 4 6 8 6 4 5 5 4 5 6 6 7 7 7 8 9 10 10 11 11 10 10 11 13 14 14 13 11 15 18 19 19 21 23 25 28 29 28 27 26 27 29 31 32 32 30 30 31 32 33 35 36 34 30 31 37 40 35
4 6 5 5 5 6 5 8 10 6 3 4 7 9 8 7 7 8 8 8 8 7 7 7 7 5 4 6 7 7 7 5 5 6 5 6 7 7 7 7 7 7 8 8 9 10 10 10 10 10 11 13 14 12 10 13 17 18 18 20 22 24 26 27 28 29 29 28 29 31 31 32 32 31 31 31 30 28 30 37 42 42 35 31 33 38
Wind_Direction
96 121 170 182 181 191 191 165 140 149 138 134 130 117 148 168 222 250 264 297 316 159 250 251 269 278 268 268 274 275 263 251 267 273 268 262 255 251 245 248 244 237 249 259 260 254 246 245 244 242 241 239 236 235 233 231 231 231 230 228 228 227 223 220 221 220 219 219 221 223 225 226 225 226 232 237 236 236 238 239 235 233 240 245 242 241
93 155 207 205 183 172 155 129 108 100 89 95 133 142 171 190 205 242 243 306 342 184 268 353 319 278 264 265 269 272 278 259 246 246 255 257 254 249 242 248 248 249 264 271 264 256 247 244 241 238 237 234 233 232 231 231 232 232 229 228 229 228 222 219 220 218 218 218 217 218 222 224 225 227 229 232 234 236 237 236 234 234 240 240 237 240
119 212 230 207 152 108 88 95 94 89 89 85 113 133 175 226 225 266 269 326 1 166 269 352 336 282 270 265 261 257 252 248 241 235 245 253 256 256 245 246 254 265 274 266 258 256 251 246 241 237 234 231 232 232 231 231 231 229 227 228 229 227 224 222 220 218 219 220 219 220 221 222 223 226 231 232 233 235 232 229 230 234 242 246 244 245
179 252 242 178 136 109 83 72 95 88 82 95 110 130 188 243 186 225 264 332 4 82 259 326 315 286 284 282 268 259 255 265 268 257 253 248 250 256 257 258 257 257 263 263 260 255 252 248 241 235 232 231 230 229 229 228 227 227 227 229 228 226 226 224 221 220 220 219 219 221 223 225 224 223 227 228 229 232 233 232 233 235 239 242 244 247
187 261 163 131 121 118 113 102 121 119 87 132 152 144 169 197 176 196 258 346 357 28 38 13 318 293 304 313 283 286 324 298 292 296 279 256 246 259 271 268 252 247 255 261 264 259 249 246 242 237 232 231 229 227 227 226 225 226 227 228 227 226 225 224 223 221 218 216 216 217 220 222 225 225 224 223 224 228 234 239 239 235 232 234 241 246
217 267 127 122 101 103 122 154 177 157 152 244 218 177 170 169 159 149 74 65 39 357 1 22 327 287 315 312 272 297 342 306 300 306 280 268 265 263 265 265 256 250 250 252 260 266 262 254 248 243 235 230 229 229 229 229 227 227 227 227 225 224 224 223 222 219 215 212 212 212 212 213 216 221 223 225 228 230 233 237 238 237 236 241 248 247
204 344 84 123 127 116 126 187 215 161 138 211 231 169 142 131 130 135 123 90 93 255 335 47 161 263 312 297 268 312 331 301 298 284 270 272 278 262 256 270 276 268 260 255 259 262 262 259 251 245 238 230 231 231 229 228 227 226 226 226 224 224 223 222 220 218 214 211 211 212 212 213 214 218 222 227 229 231 234 236 237 240 244 247 250 249
116 73 70 99 107 122 143 205 218 152 131 216 230 133 126 126 136 143 117 97 185 231 330 19 113 239 296 272 272 331 327 304 306 288 278 284 281 273 264 270 275 273 272 268 265 262 256 254 251 253 249 237 234 232 228 226 223 222 223 223 222 221 222 221 218 217 214 211 212 213 215 217 219 221 225 227 229 231 235 237 239 242 243 244 245 246
102 144 166 129 111 152 181 231 212 152 130 244 210 126 127 128 129 124 99 93 71 4 302 319 53 204 268 274 306 350 325 298 294 279 282 299 297 297 292 284 281 277 273 265 264 270 269 265 265 271 267 240 227 225 222 221 219 218 217 217 217 217 217 218 216 216 216 215 214 214 216 219 222 226 228 230 231 233 235 237 240 242 242 243 244 245
70 178 188 144 140 183 185 333 269 151 134 187 147 102 83 81 84 84 91 99 58 28 240 264 5 192 263 282 303 352 279 258 266 271 278 286 287 290 292 294 300 299 293 274 263 267 274 278 284 293 271 216 200 201 203 206 207 207 208 208 208 211 212 214 215 215 216 217 217 217 218 220 223 226 229 231 233 235 236 237 239 241 243 245 246 247
330 267 193 116 146 170 138 71 39 70 126 139 124 82 67 44 38 53 56 79 71 302 252 253 302 186 269 280 251 214 223 217 237 284 294 291 295 290 280 287 301 312 312 300 289 280 280 283 291 298 186 165 165 171 177 184 191 194 197 200 201 205 208 209 212 213 216 217 218 221 222 223 225 227 228 229 232 234 236 237 239 241 244 246 247 248
2 39 21 90 118 122 104 69 44 44 92 103 101 97 87 12 12 28 1 42 120 252 260 265 295 177 229 259 249 244 254 227 213 270 287 291 301 296 290 299 303 309 314 315 327 326 330 21 69 110 130 142 153 158 164 170 177 183 188 192 195 199 203 206 209 212 215 218 220 224 226 228 230 231 231 231 233 237 238 240 242 243 244 245 246 247
29 72 270 32 109 145 118 80 38 353 16 70 109 115 103 13 20 7 312 332 213 243 266 276 245 213 235 249 259 263 264 240 211 230 249 263 279 284 295 311 314 316 316 319 330 335 352 26 56 119 136 146 154 157 160 165 169 174 180 186 191 194 197 201 206 210 214 218 221 224 227 231 233 234 235 237 239 242 243 245 246 246 247 247 247 247
275 306 299 114 226 202 145 128 126 250 264 126 144 134 131 121 99 231 259 284 256 254 293 291 242 257 273 265 248 250 257 240 200 222 234 244 261 271 291 307 309 309 308 307 316 327 333 338 4 141 155 155 156 160 161 162 166 171 176 182 188 191 193 198 203 208 214 219 222 226 229 233 235 236 239 241 243 246 249 250 251 252 252 253 253 254
181 264 228 164 206 180 165 174 152 143 138 166 171 133 149 160 151 199 209 197 232 259 308 298 241 207 217 272 242 238 264 285 240 241 254 258 263 271 292 300 296 297 303 309 309 305 297 297 281 162 177 166 161 163 164 166 169 172 176 180 183 187 190 196 202 207 214 219 222 226 229 232 235 238 241 244 247 250 252 254 255 256 258 259 261 262
165 241 264 285 272 155 167 219 122 109 116 227 126 102 164 186 138 139 178 173 169 136 290 251 239 218 212 280 279 247 266 280 267 280 289 270 276 294 293 291 293 295 296 303 305 285 272 251 150 154 174 175 171 168 168 170 171 173 176 178 181 187 192 197 203 209 215 220 223 226 229 231 235 238 242 245 249 252 255 257 259 261 263 264 265 266
155 255 312 342 341 93 167 213 107 115 168 160 126 165 211 169 112 115 192 54 83 185 256 218 256 291 321 293 294 315 299 277 258 266 275 271 291 305 283 285 293 291 286 288 287 268 263 241 169 154 164 175 173 168 168 167 168 171 172 176 181 188 195 202 208 214 221 225 228 231 232 235 238 240 244 248 251 255 258 261 262 264 266 266 267 268
155 139 331 26 100 351 219 133 61 36 111 123 174 203 186 120 96 113 153 15 43 233 272 287 245 288 325 280 312 350 327 286 251 236 262 299 319 297 280 286 280 277 283 288 286 276 279 278 247 166 157 169 164 159 161 158 159 162 163 169 176 182 191 200 211 220 228 233 236 239 242 245 248 250 253 255 257 259 260 261 263 265 268 269 271 272
129 121 319 5 147 295 351 102 94 20 48 117 183 175 115 141 173 100 138 165 121 233 277 301 281 265 214 228 294 298 262 268 274 277 294 294 303 289 279 285 275 281 300 305 306 303 295 288 268 190 152 156 154 152 153 152 153 153 154 157 159 164 173 187 209 221 228 235 239 245 250 254 257 259 261 261 261 261 261 263 266 268 271 274 275 274
113 129 223 283 230 276 25 130 178 183 20 35 92 100 78 132 164 156 152 166 173 200 253 309 323 268 225 214 215 238 249 250 260 288 262 243 259 249 247 264 272 289 308 311 312 306 296 291 267 190 153 148 147 147 147 146 146 144 146 150 152 159 171 187 205 214 223 233 240 247 251 255 260 262 265 266 265 264 265 268 270 272 276 278 278 277
99 130 171 266 315 181 169 211 190 172 151 111 122 157 173 71 116 163 97 113 141 163 186 264 297 269 249 210 192 224 252 240 231 247 205 207 242 253 248 256 269 285 292 295 298 292 294 295 241 164 159 155 147 145 141 139 142 143 148 155 159 167 178 193 212 223 232 237 242 247 250 255 260 262 266 267 267 268 272 274 276 279 282 282 282 282
142 140 151 148 196 194 223 254 194 174 166 161 170 183 178 147 125 154 246 249 117 138 168 171 257 267 254 208 198 218 243 240 231 233 219 209 226 250 260 257 264 277 278 282 282 277 292 295 175 150 158 156 146 143 138 134 137 137 139 147 158 169 176 206 245 254 256 253 252 256 260 264 266 269 272 274 275 278 281 284 286 289 288 288 289 288
129 109 115 146 207 212 252 303 159 182 154 153 193 190 167 159 141 153 207 222 121 115 149 112 259 270 262 203 206 225 246 262 252 238 247 244 220 233 259 265 265 261 259 274 280 278 302 310 175 144 149 145 135 130 123 118 118 113 106 96 56 328 317 298 280 270 264 262 265 271 276 279 282 286 288 289 289 290 293 294 295 296 294 294 295 292
127 115 115 112 304 316 327 354 35 33 99 173 231 189 161 180 149 147 182 170 139 168 140 87 277 269 280 276 218 240 261 279 274 244 245 274 286 271 263 268 287 274 276 301 314 318 335 353 32 99 113 108 103 101 99 96 95 92 85 62 310 293 289 279 271 267 265 266 271 276 279 282 287 291 294 295 295 296 298 298 297 297 296 297 297 295
186 162 131 115 43 5 350 351 343 307 220 199 217 167 147 127 100 101 117 99 122 206 156 141 241 253 282 315 313 304 310 304 287 259 225 244 287 295 258 231 58 26 358 349 345 343 352 3 8 20 56 71 77 83 86 86 85 85 83 265 261 262 263 262 260 259 260 260 260 265 272 282 292 298 300 299 296 296 298 298 299 300 302 303 302 300
181 176 149 153 168 183 195 203 217 217 189 187 176 153 158 146 136 146 123 106 222 227 158 173 231 238 328 338 334 328 329 309 281 271 245 232 251 272 262 165 60 35 5 342 334 337 339 340 348 8 41 63 73 80 84 87 96 122 204 231 240 244 241 240 240 237 239 242 247 264 285 300 309 308 301 295 294 297 300 303 306 309 311 309 306 304
142 180 188 187 195 201 201 203 170 123 143 186 179 165 173 172 161 145 114 161 201 171 159 220 236 242 263 272 241 258 278 270 266 276 283 271 260 256 245 281 332 323 293 294 311 322 325 329 344 3 24 52 67 69 75 89 117 172 201 203 212 219 210 207 209 201 200 208 234 324 354 343 319 300 296 300 305 312 319 325 329 331 328 319 312 312
100 200 208 201 214 218 197 186 160 134 162 186 170 164 175 173 163 154 180 208 171 114 232 237 228 242 243 191 210 246 245 251 266 265 269 272 261 254 257 324 318 297 277 287 295 293 304 316 333 356 14 35 45 43 52 65 77 109 127 137 151 160 153 148 145 130 115 104 92 70 56 38 3 345 341 342 344 347 352 355 354 350 344 336 329 325
130 208 209 194 221 231 164 139 176 159 163 177 168 171 174 169 174 182 205 216 167 160 239 232 185 230 239 186 202 229 211 216 235 237 250 258 254 272 343 314 293 276 269 270 261 264 274 287 303 339 12 34 47 48 60 70 76 87 92 92 93 92 91 92 89 86 83 80 75 60 46 37 24 17 12 6 4 5 4 2 359 354 350 344 339 334
158 212 195 175 219 238 181 145 184 162 143 167 178 179 175 174 185 193 208 219 199 205 238 228 170 240 243 187 204 227 213 215 219 212 267 259 251 257 256 253 253 255 254 198 182 238 241 247 276 345 26 39 50 53 60 69 73 78 79 75 74 71 70 74 74 72 69 60 54 47 41 36 27 20 16 10 7 5 2 358 354 351 349 345 341 338
200 220 159 144 207 248 202 161 183 162 150 173 183 184 183 182 194 204 212 218 209 220 244 248 257 267 252 160 199 229 221 226 228 221 241 244 242 236 233 240 239 246 252 165 186 243 238 244 347 35 37 36 42 45 53 62 64 68 66 61 65 64 64 68 68 67 62 54 50 44 35 29 21 15 9 4 3 359 355 352 350 347 346 343 340 337
187 205 76 118 183 247 211 167 166 108 95 148 193 188 192 192 201 210 212 209 194 209 236 244 253 261 234 152 200 219 188 215 235 228 232 240 238 231 231 240 243 251 270 2 260 283 351 21 29 45 43 39 45 47 50 53 53 56 58 58 60 59 62 68 70 69 65 56 48 35 23 15 9 5 1 357 356 353 349 345 343 342 340 338 338 333
166 161 127 151 184 256 282 150 140 98 84 253 235 203 197 199 204 206 217 229 205 196 212 218 232 247 221 149 209 215 164 205 231 223 223 235 239 237 235 238 250 278 329 19 321 348 19 38 53 58 53 50 50 46 45 45 44 48 52 53 55 60 68 72 68 62 54 43 32 19 12 6 1 359 356 354 352 348 345 342 339 339 337 335 333 329
155 153 167 173 174 243 283 118 114 123 199 231 228 198 193 194 193 190 210 224 213 200 211 222 237 254 235 163 206 217 191 213 237 237 240 245 245 250 252 251 249 47 54 60 56 41 47 63 69 67 62 57 53 49 47 45 46 51 54 55 59 65 65 59 50 42 34 27 21 15 10 5 2 360 356 354 352 348 345 343 340 339 337 333 330 326
159 158 167 157 144 170 143 116 129 202 222 237 244 174 187 192 190 196 216 224 214 206 222 236 249 256 246 217 210 210 214 232 260 343 334 342 309 264 273 15 73 96 90 76 70 63 64 74 79 73 64 57 52 51 49 47 52 57 57 58 59 56 49 40 35 31 25 21 17 13 9 5 3 1 357 355 352 348 346 343 340 339 336 331 327 324
159 157 145 148 148 132 131 166 197 228 251 281 311 160 171 175 176 196 231 245 229 207 212 230 241 245 248 246 226 185 193 199 102 47 12 6 7 17 65 75 78 88 89 82 76 67 67 75 81 77 66 57 54 52 49 50 55 58 58 57 52 43 36 31 28 24 19 16 13 10 8 4 1 360 357 355 352 348 346 343 339 338 334 328 325 322
153 153 153 189 190 150 158 198 235 308 323 277 245 206 159 158 165 180 220 248 233 208 201 218 234 241 248 253 237 159 139 141 148 1 8 15 28 57 79 86 84 84 86 83 77 75 79 82 79 75 69 60 55 50 48 51 55 56 55 50 41 34 29 26 22 18 14 11 8 5 4 1 359 357 355 353 350 346 343 341 338 336 333 326 322 319
158 163 171 198 198 148 157 194 230 254 252 239 225 196 167 175 172 169 192 245 238 207 199 210 227 238 243 250 233 151 132 188 243 256 349 9 34 73 81 81 81 81 79 78 77 79 85 86 78 71 67 61 53 47 46 49 49 49 47 41 33 27 24 20 16 11 7 4 2 360 359 358 356 354 351 348 346 342 340 338 336 335 332 326 321 318
185 110 125 187 200 168 178 206 208 210 234 241 227 209 195 183 149 135 180 251 247 206 197 204 220 233 238 241 216 140 143 234 248 225 133 39 57 78 87 85 81 78 74 72 75 78 83 84 75 63 57 53 46 40 39 41 41 41 40 35 28 23 19 14 9 3 0 358 356 355 354 353 351 349 346 343 341 338 337 335 333 332 330 326 322 319
193 166 146 189 207 198 196 218 229 226 250 244 222 219 206 161 128 126 204 247 232 205 214 196 209 227 225 200 161 144 174 228 227 174 155 137 94 78 85 88 81 77 70 65 68 76 80 76 66 57 51 45 38 34 35 35 36 37 36 31 25 20 15 6 360 357 355 353 352 351 350 349 347 345 342 340 337 335 333 331 330 329 327 325 323 320
189 184 191 200 211 214 215 229 249 254 246 224 208 201 165 140 138 170 215 234 188 195 266 185 183 202 171 142 144 162 198 206 133 128 141 138 109 83 82 86 83 77 69 62 62 70 75 70 63 58 50 42 36 34 33 32 34 34 32 27 22 15 6 358 355 354 353 351 350 348 347 346 344 342 340 338 336 332 330 329 328 326 325 324 322 320
184 184 198 200 205 215 220 225 244 266 236 183 174 197 170 150 180 201 194 151 141 161 168 132 142 149 136 122 123 134 137 119 110 114 119 120 110 95 86 83 76 68 63 57 54 58 63 62 57 54 47 38 35 34 30 31 35 33 29 25 16 5 357 354 352 351 350 349 347 346 345 343 341 340 338 336 335 331 327 327 326 325 323 322 321 319
180 177 188 194 192 192 202 203 207 244 219 157 140 160 199 189 198 173 126 101 159 149 128 116 131 147 133 111 106 120 126 123 117 114 113 111 108 104 94 82 72 62 55 50 45 45 50 51 49 47 42 34 32 31 29 30 31 29 25 19 6 357 354 352 350 349 348 347 345 343 342 340 338 338 336 335 333 329 326 325 324 323 322 320 319 317
189 182 187 195 184 166 187 207 204 191 193 163 145 173 206 198 175 151 135 135 168 172 153 125 117 145 139 126 125 130 128 128 132 130 124 117 115 114 98 79 68 60 52 48 41 37 41 44 41 40 39 33 29 28 28 28 27 25 20 10 359 354 353 350 348 347 345 343 342 340 338 335 334 333 332 331 330 327 324 323 322 320 318 317 316 313
213 194 174 177 182 170 184 210 227 125 178 188 161 219 201 152 132 143 136 134 161 187 171 136 131 143 138 128 127 131 135 142 148 148 141 135 132 126 110 87 71 61 52 46 41 36 39 43 37 33 33 30 27 26 26 26 24 20 13 3 356 352 348 346 345 344 342 341 340 338 336 333 331 331 330 329 328 325 321 320 318 316 314 313 311 307
253 213 143 145 187 237 218 169 148 55 291 287 336 318 204 142 155 151 137 138 162 172 158 148 148 150 148 141 135 138 151 153 149 146 145 140 135 124 113 97 78 64 55 47 37 32 38 43 36 30 28 26 24 24 24 25 23 17 8 360 352 345 341 342 342 342 342 341 338 337 336 333 330 330 328 326 325 321 317 315 313 310 309 307 304 301
287 198 146 145 175 189 212 192 140 133 213 209 220 342 16 41 41 145 142 148 155 156 158 157 150 149 156 154 145 147 157 156 149 147 146 138 134 125 108 93 75 59 54 45 31 27 33 36 32 27 25 21 19 19 21 23 20 14 5 354 344 340 340 343 344 343 342 341 337 336 334 331 328 326 325 324 323 319 315 313 309 306 303 301 300 299
236 157 153 189 183 172 191 248 80 57 263 221 198 200 184 155 91 64 91 117 122 123 124 120 124 137 147 145 140 141 142 142 141 143 144 138 130 116 93 78 65 54 49 40 29 28 32 31 28 24 18 15 14 13 18 22 14 3 355 347 342 342 344 345 344 341 338 337 334 332 331 329 327 325 323 321 320 317 314 311 309 305 300 297 296 295
147 157 176 164 147 170 281 180 131 45 330 265 229 223 203 166 137 104 100 112 117 119 112 90 75 87 103 111 128 132 128 123 111 113 120 119 109 95 76 63 54 47 44 36 29 32 34 30 25 19 14 14 11 10 17 18 360 349 348 346 345 347 346 344 341 337 334 333 332 330 330 329 327 325 322 319 317 315 311 307 304 301 298 298 297 289
145 175 176 118 130 220 230 183 161 151 222 227 216 204 184 161 148 138 135 133 131 135 129 108 81 64 68 71 90 122 129 123 103 101 107 97 81 70 57 49 45 40 35 30 28 30 32 29 22 14 13 14 11 12 17 3 343 343 347 346 346 347 345 342 338 334 333 333 330 329 330 329 327 325 323 320 318 317 314 312 308 302 295 298 301 298
178 183 169 154 189 221 202 171 172 179 206 219 199 179 168 161 154 155 160 157 152 154 151 140 128 113 83 61 69 99 116 109 101 107 103 85 76 69 57 46 40 34 27 25 27 26 22 21 16 9 7 8 9 13 5 342 337 343 345 341 342 343 342 340 338 333 331 330 329 329 329 328 325 323 321 320 318 315 313 313 313 311 304 298 300 302